LTR55S ENQA-ENBR

Flight info

Callsign LTR55S
Flight time 0h 21m
Altitude 3000
Route ARPIX OXEBU VFR NAROY
Aircraft A139/L-SDGRWY/S

Departure

Time 2026-04-27 16:58
Airport Troll A Platform (ENQA)

Arrival

Time 2026-04-27 17:19
Airport Bergen Airport, Flesland (ENBR)
Time Latitude Longitude Altitude Speed Heading
2026-04-27 16:55 60.64500 3.72470 151 ft 0 kts 95°
2026-04-27 16:57 60.64507 3.72450 167 ft 3 kts 93°
2026-04-27 16:57 60.64502 3.72288 288 ft 18 kts 84°
2026-04-27 16:58 60.64563 3.72233 472 ft 27 kts 91°
2026-04-27 16:58 60.64510 3.73115 673 ft 96 kts 95°
2026-04-27 16:58 60.64373 3.74748 873 ft 130 kts 98°
2026-04-27 16:58 60.63984 3.76350 1287 ft 126 kts 117°
2026-04-27 16:59 60.63560 3.77906 1553 ft 124 kts 115°
2026-04-27 16:59 60.63161 3.79447 1794 ft 125 kts 114°
2026-04-27 16:59 60.62765 3.81026 2047 ft 125 kts 114°
2026-04-27 16:59 60.62376 3.82602 2299 ft 126 kts 113°
2026-04-27 17:00 60.61727 3.85247 2720 ft 126 kts 113°
2026-04-27 17:00 60.61206 3.87394 3024 ft 128 kts 116°
2026-04-27 17:00 60.60812 3.88993 3080 ft 127 kts 116°
2026-04-27 17:01 60.60418 3.90621 3047 ft 127 kts 116°
2026-04-27 17:01 60.60027 3.92227 3023 ft 127 kts 115°
2026-04-27 17:01 60.59632 3.93847 3009 ft 127 kts 115°
2026-04-27 17:01 60.59239 3.95453 3010 ft 127 kts 115°
2026-04-27 17:02 60.58848 3.97050 3006 ft 127 kts 114°
2026-04-27 17:02 60.58448 3.98679 2913 ft 136 kts 112°
2026-04-27 17:02 60.57982 4.00561 2984 ft 156 kts 112°
2026-04-27 17:02 60.57496 4.02572 3058 ft 159 kts 114°
2026-04-27 17:03 60.57005 4.04557 3063 ft 159 kts 114°
2026-04-27 17:03 60.56512 4.06558 3039 ft 159 kts 114°
2026-04-27 17:03 60.56015 4.08567 3020 ft 159 kts 114°
2026-04-27 17:03 60.55521 4.10567 3015 ft 158 kts 114°
2026-04-27 17:04 60.55026 4.12567 3008 ft 158 kts 114°
2026-04-27 17:04 60.54528 4.14583 3006 ft 159 kts 115°
2026-04-27 17:04 60.54035 4.16566 3005 ft 159 kts 114°
2026-04-27 17:04 60.53536 4.18581 2999 ft 159 kts 114°
2026-04-27 17:05 60.53041 4.20577 3006 ft 159 kts 114°
2026-04-27 17:05 60.52547 4.22566 3012 ft 158 kts 114°
2026-04-27 17:05 60.52045 4.24586 3006 ft 158 kts 115°
2026-04-27 17:05 60.51554 4.26556 3001 ft 159 kts 115°
2026-04-27 17:06 60.51057 4.28553 3003 ft 158 kts 114°
2026-04-27 17:06 60.50558 4.30554 3006 ft 158 kts 114°
2026-04-27 17:06 60.50061 4.32547 3010 ft 158 kts 114°
2026-04-27 17:06 60.49572 4.34507 3012 ft 157 kts 115°
2026-04-27 17:07 60.49071 4.36508 3004 ft 158 kts 115°
2026-04-27 17:07 60.48490 4.38374 2983 ft 161 kts 136°
2026-04-27 17:07 60.47514 4.39463 3001 ft 162 kts 153°
2026-04-27 17:07 60.46488 4.40385 3005 ft 162 kts 154°
2026-04-27 17:08 60.45442 4.41300 3007 ft 162 kts 154°
2026-04-27 17:08 60.44412 4.42192 3016 ft 162 kts 155°
2026-04-27 17:08 60.43381 4.43078 3017 ft 162 kts 155°
2026-04-27 17:08 60.42348 4.43963 3010 ft 162 kts 155°
2026-04-27 17:09 60.41355 4.45045 2998 ft 161 kts 133°
2026-04-27 17:09 60.40668 4.46791 3016 ft 158 kts 120°
2026-04-27 17:09 60.40116 4.48681 3006 ft 158 kts 117°
2026-04-27 17:09 60.39609 4.50645 3008 ft 157 kts 114°
2026-04-27 17:10 60.39124 4.52635 3007 ft 157 kts 114°
2026-04-27 17:10 60.38647 4.54624 3005 ft 157 kts 113°
2026-04-27 17:10 60.38182 4.56592 3003 ft 157 kts 113°
2026-04-27 17:10 60.37714 4.58582 3007 ft 156 kts 113°
2026-04-27 17:11 60.37246 4.60569 3007 ft 156 kts 113°
2026-04-27 17:11 60.36316 4.64529 2995 ft 157 kts 113°
2026-04-27 17:11 60.35843 4.66537 2999 ft 157 kts 114°
2026-04-27 17:12 60.34900 4.70543 2985 ft 157 kts 113°
2026-04-27 17:12 60.34432 4.72528 2917 ft 157 kts 114°
2026-04-27 17:12 60.33963 4.74519 2839 ft 157 kts 114°
2026-04-27 17:13 60.33492 4.76508 2768 ft 157 kts 114°
2026-04-27 17:13 60.33020 4.78503 2693 ft 157 kts 114°
2026-04-27 17:13 60.32555 4.80469 2625 ft 157 kts 114°
2026-04-27 17:13 60.32084 4.82462 2536 ft 157 kts 114°
2026-04-27 17:14 60.31612 4.84448 2448 ft 157 kts 114°
2026-04-27 17:14 60.31143 4.86428 2379 ft 157 kts 114°
2026-04-27 17:14 60.30677 4.88392 2188 ft 156 kts 114°
2026-04-27 17:14 60.30205 4.90379 1904 ft 157 kts 114°
2026-04-27 17:15 60.29827 4.92448 1612 ft 157 kts 108°
2026-04-27 17:15 60.29509 4.94528 1271 ft 157 kts 104°
2026-04-27 17:15 60.29250 4.96665 855 ft 158 kts 101°
2026-04-27 17:15 60.28995 4.98821 648 ft 160 kts 104°
2026-04-27 17:16 60.28793 5.00946 905 ft 148 kts 97°
2026-04-27 17:16 60.28605 5.02912 930 ft 140 kts 99°
2026-04-27 17:16 60.28417 5.04838 864 ft 141 kts 99°
2026-04-27 17:16 60.28225 5.06790 860 ft 141 kts 99°
2026-04-27 17:17 60.28108 5.08762 872 ft 141 kts 94°
2026-04-27 17:17 60.28037 5.10745 882 ft 141 kts 92°
2026-04-27 17:17 60.27965 5.12729 888 ft 141 kts 92°
2026-04-27 17:18 60.27869 5.16414 833 ft 109 kts 84°
2026-04-27 17:18 60.27940 5.17788 727 ft 90 kts 79°
2026-04-27 17:18 60.28012 5.18967 720 ft 83 kts 83°
2026-04-27 17:18 60.28025 5.20096 631 ft 81 kts 83°
2026-04-27 17:19 60.28107 5.21262 456 ft 86 kts 72°
2026-04-27 17:19 60.28389 5.22222 290 ft 72 kts 20°
2026-04-27 17:19 60.28822 5.22287 215 ft 56 kts 351°
2026-04-27 17:19 60.29155 5.22197 185 ft 39 kts 349°
2026-04-27 17:20 60.29340 5.22145 172 ft 18 kts 359°
2026-04-27 17:20 60.29390 5.22129 153 ft 0 kts 355°
2026-04-27 17:20 60.29391 5.22131 153 ft 0 kts 27°
2026-04-27 17:20 60.29401 5.22176 153 ft 4 kts 80°
2026-04-27 17:21 60.29402 5.22200 153 ft 0 kts 95°
2026-04-27 17:21 60.29395 5.22230 153 ft 5 kts 128°
2026-04-27 17:21 60.29347 5.22258 154 ft 7 kts 170°
2026-04-27 17:21 60.29299 5.22275 155 ft 6 kts 173°
2026-04-27 17:22 60.29255 5.22289 156 ft 6 kts 170°
2026-04-27 17:22 60.29209 5.22304 157 ft 6 kts 171°
2026-04-27 17:22 60.29161 5.22321 158 ft 7 kts 164°
2026-04-27 17:22 60.29149 5.22393 158 ft 4 kts 80°
2026-04-27 17:23 60.29155 5.22429 158 ft 1 kts 349°